Location: Widewater Village at Stafford
(38.4893°N, 77.3783°W)
Time: 13:57:02
(UTC+00:00)

Tiangong - Pass Details

Date: 30 November 2022
Orbit: 383 x 386 km, 41.5° (Epoch: 05 February)

Event Time Altitude Azimuth Distance (km) Brightness Sun altitude
Rises 00:11:39 0° 255° (WSW) 2,248 3.0 -27.3°
Reaches altitude 10° 00:13:43 10° 256° (WSW) 1,398 1.7 -27.7°
Enters shadow 00:14:33 17° 258° (WSW) 1,061 0.9 -27.9°
